Location: Township of Marena
(38.1747°N, 99.6798°W)
Time: 12:13:07
(UTC+00:00)

Cosmos 2369 - Pass Details

Date: 26 October 2020
Orbit: 840 x 855 km, 71.0° (Epoch: 24 November)

Event Time Altitude Azimuth Distance (km) Brightness Sun altitude
Rises 02:04:58 0° 209° (SSW) 3,409 7.1 -27.7°
Reaches altitude 10° 02:07:26 10° 212° (SSW) 2,476 6.4 -28.2°
Maximum altitude 02:13:05 66° 294° (WNW) 926 4.0 -29.3°
Enters shadow 02:14:26 50° 352° (N) 1,078 4.2 -29.6°
